Dallas Love, TX

12:47 AM CDT on April 26, 2018 (GMT -0500)
Dallas Love

Weather History for KDAL - October, 2013

Change the Weather History Date:

Friday, October 11, 2013

  Actual Average Record
Temperature  
Mean Temperature 78 °F -  
Max Temperature 88 °F 77 °F 96 °F (2016)
Min Temperature 69 °F 58 °F 52 °F (2017)
Cooling Degree Days 13    
Growing Degree Days 28 (Base 50)    
Moisture  
Dew Point 66 °F    
Average Humidity 67    
Maximum Humidity 83    
Minimum Humidity 53    
Precipitation  
Precipitation 0.00 in - - ()
Sea Level Pressure  
Sea Level Pressure 29.87 in    
Wind  
Wind Speed 13 mph (South)    
Max Wind Speed 16 mph    
Max Gust Speed 23 mph    
Visibility 10 miles    
Events      
Averages and records for this station are not official NWS values.
T = Trace of Precipitation, MM = Missing Value Source: NWS Daily Summary

Daily Weather History Graph

Daily Weather History Graph

Search for Another Location

Airport or City:

Astronomy

Oct. 11, 2013 Rise Set
Actual Time 7:28 AM CDT 6:58 PM CDT
Civil Twilight 7:04 AM CDT 7:23 PM CDT
Nautical Twilight 6:35 AM CDT 7:52 PM CDT
Astronomical Twilight 6:06 AM CDT 8:20 PM CDT
Moon 2:01 PM CDT (10/11) No Moon Set
Length of Visible Light 12h 19m
Length of Day
11h 30m
Waxing Crescent, 47% of the Moon is Illuminated
Oct 11
Waxing Crescent
Oct 11
First Quarter
Oct 18
Full
Oct 26
Last Quarter
Nov 3
New

Hourly Weather History & Observations

Time (CDT) Temp. Heat Index Dew Point Humidity Pressure Visibility Wind Dir Wind Speed Gust Speed Precip Events Conditions
12:53 AM 73.0 °F - 61.0 °F 66% 29.87 in 10.0 mi SSE 16.1 mph - N/A   Clear
1:53 AM 73.0 °F - 62.1 °F 68% 29.86 in 10.0 mi SSE 13.8 mph - N/A   Clear
2:53 AM 72.0 °F - 63.0 °F 73% 29.87 in 10.0 mi South 13.8 mph 21.9 mph N/A   Partly Cloudy
3:08 AM 71.6 °F - 64.4 °F 78% 29.89 in 10.0 mi South 13.8 mph - N/A   Mostly Cloudy
3:53 AM 72.0 °F - 64.0 °F 76% 29.87 in 10.0 mi South 13.8 mph - N/A   Mostly Cloudy
4:53 AM 72.0 °F - 64.0 °F 76% 29.87 in 10.0 mi SSE 13.8 mph 20.7 mph N/A   Scattered Clouds
5:53 AM 71.1 °F - 64.0 °F 78% 29.87 in 10.0 mi SSE 12.7 mph - N/A   Mostly Cloudy
6:53 AM 70.0 °F - 64.0 °F 81% 29.88 in 10.0 mi SSE 9.2 mph - N/A   Mostly Cloudy
7:21 AM 69.8 °F - 64.4 °F 83% 29.93 in 10.0 mi South 3.5 mph - N/A   Overcast
7:53 AM 71.1 °F - 64.0 °F 78% 29.92 in 10.0 mi South 3.5 mph - N/A   Overcast
8:53 AM 72.0 °F - 64.9 °F 78% 29.93 in 10.0 mi South 8.1 mph - N/A   Overcast
9:53 AM 73.0 °F - 64.9 °F 76% 29.94 in 10.0 mi SSE 10.4 mph - N/A   Overcast
10:53 AM 78.1 °F - 66.0 °F 66% 29.92 in 10.0 mi South 12.7 mph 19.6 mph N/A   Overcast
11:53 AM 80.1 °F 82.3 °F 66.9 °F 64% 29.90 in 10.0 mi South 11.5 mph - N/A   Mostly Cloudy
12:53 PM 82.9 °F 85.8 °F 68.0 °F 60% 29.88 in 10.0 mi South 16.1 mph 21.9 mph N/A   Mostly Cloudy
1:36 PM 84.2 °F 87.3 °F 68.0 °F 58% 29.87 in 10.0 mi South 13.8 mph 20.7 mph N/A   Mostly Cloudy
1:53 PM 84.9 °F 88.2 °F 68.0 °F 57% 29.84 in 10.0 mi South 11.5 mph - N/A   Mostly Cloudy
2:53 PM 84.9 °F 87.6 °F 66.9 °F 55% 29.82 in 10.0 mi South 10.4 mph 17.3 mph N/A   Mostly Cloudy
3:53 PM 86.0 °F 88.8 °F 66.9 °F 53% 29.81 in 10.0 mi South 11.5 mph 17.3 mph N/A   Mostly Cloudy
4:53 PM 87.1 °F 90.6 °F 68.0 °F 53% 29.81 in 10.0 mi South 15.0 mph - N/A   Mostly Cloudy
5:53 PM 86.0 °F 89.4 °F 68.0 °F 55% 29.81 in 10.0 mi South 12.7 mph 21.9 mph N/A   Mostly Cloudy
6:53 PM 84.0 °F 87.0 °F 68.0 °F 58% 29.82 in 10.0 mi SSE 12.7 mph - N/A   Mostly Cloudy
7:53 PM 82.9 °F 86.5 °F 69.1 °F 63% 29.83 in 10.0 mi SSE 13.8 mph - N/A   Mostly Cloudy
8:53 PM 82.0 °F 85.5 °F 69.1 °F 65% 29.84 in 10.0 mi SSE 12.7 mph 23.0 mph N/A   Overcast
9:53 PM 81.0 °F 84.1 °F 69.1 °F 67% 29.85 in 10.0 mi SSE 13.8 mph - N/A   Mostly Cloudy
10:53 PM 81.0 °F 84.1 °F 69.1 °F 67% 29.86 in 10.0 mi SSE 13.8 mph - N/A   Partly Cloudy
11:53 PM 80.1 °F 82.9 °F 69.1 °F 69% 29.86 in 10.0 mi South 12.7 mph - N/A   Scattered Clouds